Current weather by "City, St" or "zip code"  
 
Advertise Here

Current Conditions: Vernon, Wilbarger County Airport, TX

Mostly Cloudy


40.0 F

Last Updated on Jan 27 2021, 12:55 pm CST
Humidity: 65%
Wind Speed: N 12.7 mph
Barometer 30.43 in
Dewpoint: 28.9 F
Visibility: 10.00 mi
Precip: --
Heat Index: NA
Wind Chill: 33 F
Current conditions at:

Vernon, Wilbarger County Airport, TX (KF05)

Lat: 34.22556 Lon: 99.28361

Local Radar Image active severe weather and emergency alerts image image weather storm and storm spotter reports image weather observation monitoring service image
Local
Radar
Active
Alerts
Storm Reports Obs
Monitoring

Sign-up For Email & Text Message Weather Alert Notification Services


Advertise Here

Observation History for Vernon, Wilbarger County Airport, TX


Time Wind
(mph)
Vis
(mi)
Weather Precip (in) Temperature (F) Relative
Humidity
Wind
Chill
(F)
Heat
Index
(F)
Pressure
Air Dwpt altimeter
(in)
sea level
(mb)
Rmks
12:55 pm CST N 12.7 10.00 Mostly Cloudy -- 40.0 28.9 65% 33 NA 30.43 M
11:55 am CST N 15.0 G 20.7 10.00 Overcast -- 38.0 29.3 70% 29 NA 30.46 M
10:55 am CST N 11.5 10.00 Mostly Cloudy -- 37.0 29.5 74% 29 NA 30.45 M
9:55 am CST NW 11.5 10.00 Partly Cloudy -- 34.0 29.7 84% 26 NA 30.41 M
8:55 am CST N 8.1 5.00 Fair -- 31.0 29.3 92% 24 NA 30.37 M
7:55 am CST N 5.8 4.00 Fair -- 29.0 27.1 94% 23 NA 30.32 M
6:55 am CST N 8.1 5.00 Fair -- 28.0 27.5 96% 20 NA 30.27 M
5:55 am CST N 6.9 5.00 Fair -- 28.0 27.5 96% 21 NA 30.23 M
4:55 am CST N 5.8 5.00 Fair -- 28.0 27.5 96% 22 NA 30.20 M
3:55 am CST N 6.9 5.00 Fair -- 29.0 27.7 95% 22 NA 30.18 M
2:55 am CST N 5.8 7.00 Fair -- 30.0 28.4 94% 24 NA 30.16 M
1:55 am CST NW 4.6 7.00 Fair -- 31.0 29.1 92% 26 NA 30.15 M
12:55 am CST N 5.8 10.00 Fair -- 34.0 30.4 88% 29 NA 30.12 M
11:55 pm CST NE 3.5 10.00 Fair -- 34.0 30.2 85% NA NA 30.08 M
10:55 pm CST E 4.6 10.00 Partly Cloudy -- 35.0 29.8 82% 31 NA 30.08 M
9:55 pm CST NE 8.1 10.00 Overcast -- 35.0 29.1 79% 28 NA 30.08 M
8:55 pm CST N 12.7 10.00 Overcast -- 35.0 29.1 78% 26 NA 30.09 M
7:55 pm CST N 11.5 10.00 Fair -- 37.0 30.0 76% 29 NA 30.03 M
6:55 pm CST N 9.2 10.00 Fair -- 38.0 30.9 76% 32 NA 30.03 M
5:55 pm CST N 5.8 10.00 Fair -- 41.0 30.2 65% 37 NA 29.99 M
4:55 pm CST NW 5.8 10.00 Fair -- 44.0 28.8 55% 41 NA 29.97 M
3:55 pm CST N 8.1 10.00 Fair -- 45.0 29.8 56% 41 NA 29.94 M
2:55 pm CST N 6.9 10.00 Fair -- 44.0 28.2 54% 40 NA 29.95 M
1:55 pm CST NW 3.5 10.00 Fair -- 42.0 27.1 55% NA NA 29.96 M

Regional Weather Observation


Altus Air Force Base, OK (KLTS)

Mostly Cloudy
35.0 F

Altus, Altus/Quartz Mountain Regional Airport, OK (KAXS)

Partly Cloudy
39.0 F

Hobart, Hobart Municipal Airport, OK (KHBR)

A Few Clouds
37.0 F

Frederick, Frederick Municipal Airport, OK (KFDR)

Mostly Cloudy
40.0 F

Childress, Childress Municipal Airport, TX (KCDS)

Fair
38.0 F

Lawton, Lawton Municipal Airport, OK (KLAW)

Overcast
39.0 F